| time (UTC) | temp F | wind direction | speed MPH | gust MPH | rain 1hr in | rain 24hr in | rain mn in | humidity % | barometer mb |
| 20260507010135 | 59 | 219 | 1.0 | 2.0 | 0.00 | 0.14 | 0.14 | 96 | 1007.4 |
| 20260507005135 | 59 | 261 | 1.0 | 2.0 | 0.00 | 0.14 | 0.14 | 96 | 1007.3 |
| 20260507004134 | 59 | 238 | 1.0 | 2.0 | 0.00 | 0.14 | 0.14 | 96 | 1007.2 |
| 20260507003119 | 59 | 229 | 1.0 | 3.0 | 0.00 | 0.14 | 0.14 | 96 | 1007.1 |
| 20260507002102 | 59 | 279 | 1.0 | 2.0 | 0.00 | 0.14 | 0.14 | 96 | 1007.2 |
| 20260507001105 | 59 | 217 | 2.0 | 3.0 | 0.00 | 0.14 | 0.14 | 95 | 1007.3 |
| 20260507000105 | 59 | 255 | 1.0 | 3.0 | 0.00 | 0.14 | 0.14 | 95 | 1007.3 |
| 20260506235106 | 59 | 238 | 2.0 | 3.0 | 0.00 | 0.14 | 0.14 | 95 | 1007.2 |
| 20260506234051 | 59 | 226 | 1.0 | 2.0 | 0.00 | 0.14 | 0.14 | 95 | 1007.0 |
| 20260506233036 | 59 | 233 | 1.0 | 2.0 | 0.00 | 0.14 | 0.14 | 95 | 1007.0 |
| 20260506232038 | 59 | 231 | 1.0 | 3.0 | 0.00 | 0.14 | 0.14 | 95 | 1006.9 |
| 20260506231036 | 59 | 230 | 1.0 | 2.0 | 0.00 | 0.14 | 0.14 | 95 | 1006.9 |
| 20260506230036 | 59 | 244 | 1.0 | 3.0 | 0.00 | 0.14 | 0.14 | 95 | 1006.8 |
| 20260506225037 | 59 | 235 | 1.0 | 3.0 | 0.00 | 0.14 | 0.14 | 95 | 1006.7 |
| 20260506224023 | 59 | 228 | 1.0 | 2.0 | 0.02 | 0.14 | 0.14 | 95 | 1006.6 |
| 20260506223024 | 59 | 238 | 2.0 | 3.0 | 0.03 | 0.14 | 0.14 | 95 | 1006.7 |
| 20260506222021 | 60 | 234 | 1.0 | 2.0 | 0.02 | 0.13 | 0.13 | 95 | 1006.6 |
| 20260506221022 | 59 | 238 | 2.0 | 4.0 | 0.03 | 0.13 | 0.13 | 95 | 1006.6 |
| 20260506220022 | 59 | 226 | 1.0 | 3.0 | 0.03 | 0.13 | 0.13 | 95 | 1006.7 |
| 20260506215022 | 59 | 220 | 1.0 | 3.0 | 0.03 | 0.13 | 0.13 | 95 | 1006.8 |
| 20260506214023 | 59 | 241 | 1.0 | 3.0 | 0.01 | 0.11 | 0.11 | 95 | 1006.8 |
| 20260506213006 | 59 | 245 | 2.0 | 4.0 | 0.01 | 0.11 | 0.11 | 95 | 1006.9 |
| 20260506212008 | 59 | 248 | 2.0 | 3.0 | 0.01 | 0.11 | 0.11 | 95 | 1006.9 |
| 20260506211009 | 59 | 231 | 1.0 | 3.0 | 0.00 | 0.10 | 0.10 | 95 | 1006.9 |
| 20260506210008 | 59 | 223 | 2.0 | 3.0 | 0.00 | 0.11 | 0.10 | 95 | 1006.9 |
| 20260506204953 | 59 | 253 | 1.0 | 5.0 | 0.00 | 0.11 | 0.10 | 94 | 1007.0 |
| 20260506203938 | 60 | 269 | 1.0 | 3.0 | 0.00 | 0.11 | 0.10 | 94 | 1007.0 |
| 20260506202940 | 60 | 239 | 2.0 | 3.0 | 0.00 | 0.11 | 0.10 | 94 | 1007.1 |
| 20260506201939 | 60 | 250 | 1.0 | 3.0 | 0.01 | 0.11 | 0.10 | 93 | 1007.2 |
| 20260506200939 | 60 | 251 | 2.0 | 3.0 | 0.01 | 0.11 | 0.10 | 92 | 1007.3 |
| 20260506195939 | 60 | 226 | 2.0 | 6.0 | 0.01 | 0.12 | 0.10 | 92 | 1007.4 |
| 20260506194939 | 60 | 228 | 2.0 | 6.0 | 0.01 | 0.12 | 0.10 | 92 | 1007.5 |
| 20260506193926 | 60 | 241 | 1.0 | 3.0 | 0.00 | 0.11 | 0.10 | 92 | 1007.6 |
| 20260506192926 | 60 | 217 | 2.0 | 3.0 | 0.01 | 0.11 | 0.10 | 91 | 1007.8 |
| 20260506191926 | 60 | 238 | 2.0 | 4.0 | 0.02 | 0.11 | 0.09 | 91 | 1007.8 |
| 20260506190926 | 60 | 239 | 2.0 | 4.0 | 0.02 | 0.11 | 0.09 | 91 | 1007.8 |
| 20260506185925 | 60 | 257 | 2.0 | 5.0 | 0.02 | 0.11 | 0.09 | 90 | 1007.9 |
| 20260506184926 | 61 | 239 | 2.0 | 7.0 | 0.03 | 0.11 | 0.09 | 90 | 1008.0 |
| 20260506183926 | 61 | 284 | 2.0 | 5.0 | 0.04 | 0.11 | 0.09 | 90 | 1008.0 |
| 20260506182908 | 61 | 268 | 2.0 | 5.0 | 0.04 | 0.10 | 0.09 | 90 | 1007.9 |
| 20260506181909 | 61 | 244 | 2.0 | 5.0 | 0.05 | 0.09 | 0.08 | 90 | 1008.0 |
| 20260506180910 | 61 | 294 | 2.0 | 3.0 | 0.06 | 0.09 | 0.07 | 90 | 1008.0 |
| 20260506175909 | 62 | 228 | 2.0 | 3.0 | 0.06 | 0.09 | 0.07 | 89 | 1007.9 |
| 20260506174909 | 62 | 303 | 2.0 | 5.0 | 0.06 | 0.08 | 0.07 | 88 | 1008.2 |
| 20260506173911 | 62 | 227 | 2.0 | 4.0 | 0.06 | 0.07 | 0.06 | 86 | 1008.2 |
| 20260506172911 | 63 | 225 | 2.0 | 3.0 | 0.04 | 0.06 | 0.04 | 83 | 1008.7 |
| 20260506171910 | 64 | 236 | 2.0 | 5.0 | 0.02 | 0.04 | 0.02 | 81 | 1008.9 |
| 20260506170859 | 65 | 218 | 2.0 | 6.0 | 0.02 | 0.04 | 0.02 | 78 | 1009.1 |
| 20260506165900 | 66 | 224 | 3.0 | 6.0 | 0.02 | 0.03 | 0.02 | 75 | 1009.1 |
| 20260506164858 | 67 | 236 | 2.0 | 6.0 | 0.01 | 0.03 | 0.01 | 74 | 1008.9 |
| 20260506163857 | 68 | 262 | 3.0 | 5.0 | 0.00 | 0.02 | 0.00 | 71 | 1008.9 |
| 20260506162859 | 69 | 337 | 3.0 | 5.0 | 0.00 | 0.02 | 0.00 | 69 | 1008.7 |
| 20260506161858 | 69 | 245 | 2.0 | 4.0 | 0.00 | 0.02 | 0.00 | 68 | 1008.7 |
| 20260506160859 | 69 | 245 | 2.0 | 7.0 | 0.00 | 0.02 | 0.00 | 67 | 1008.9 |
| 20260506155842 | 69 | 255 | 3.0 | 7.0 | 0.00 | 0.02 | 0.00 | 67 | 1009.2 |
| 20260506154843 | 68 | 239 | 2.0 | 4.0 | 0.00 | 0.02 | 0.00 | 68 | 1009.3 |
| 20260506153843 | 68 | 255 | 3.0 | 6.0 | 0.00 | 0.02 | 0.00 | 68 | 1009.3 |
| 20260506152831 | 68 | 265 | 2.0 | 5.0 | 0.00 | 0.02 | 0.00 | 68 | 1009.4 |
| 20260506151829 | 68 | 247 | 2.0 | 5.0 | 0.00 | 0.02 | 0.00 | 69 | 1009.6 |
| 20260506150829 | 67 | 244 | 3.0 | 5.0 | 0.00 | 0.02 | 0.00 | 70 | 1009.6 |
| 20260506145821 | 67 | 19 | 2.0 | 6.0 | 0.00 | 0.02 | 0.00 | 72 | 1009.7 |
| 20260506144811 | 66 | 209 | 3.0 | 6.0 | 0.00 | 0.02 | 0.00 | 73 | 1009.8 |
| 20260506143815 | 66 | 226 | 3.0 | 5.0 | 0.00 | 0.02 | 0.00 | 73 | 1009.9 |
| 20260506142814 | 66 | 245 | 2.0 | 5.0 | 0.00 | 0.02 | 0.00 | 73 | 1009.9 |
| 20260506141811 | 65 | 253 | 2.0 | 6.0 | 0.00 | 0.02 | 0.00 | 74 | 1010.0 |
| 20260506140814 | 65 | 253 | 2.0 | 4.0 | 0.00 | 0.02 | 0.00 | 75 | 1009.9 |
| 20260506135814 | 65 | 234 | 2.0 | 4.0 | 0.00 | 0.02 | 0.00 | 75 | 1009.9 |
| 20260506134800 | 64 | 231 | 2.0 | 4.0 | 0.00 | 0.02 | 0.00 | 77 | 1009.8 |
| 20260506133800 | 64 | 246 | 2.0 | 3.0 | 0.00 | 0.02 | 0.00 | 77 | 1009.7 |
| 20260506132759 | 63 | 221 | 2.0 | 4.0 | 0.00 | 0.02 | 0.00 | 78 | 1009.7 |
| 20260506131800 | 63 | 211 | 2.0 | 4.0 | 0.00 | 0.02 | 0.00 | 78 | 1009.9 |
| 20260506130801 | 62 | 293 | 2.0 | 4.0 | 0.00 | 0.02 | 0.00 | 79 | 1010.0 |
| 20260506125800 | 62 | 252 | 2.0 | 4.0 | 0.00 | 0.02 | 0.00 | 80 | 1010.0 |
| 20260506124747 | 62 | 255 | 2.0 | 3.0 | 0.00 | 0.02 | 0.00 | 80 | 1010.1 |
| 20260506123745 | 61 | 290 | 2.0 | 5.0 | 0.00 | 0.02 | 0.00 | 81 | 1010.3 |
| 20260506122747 | 61 | 230 | 2.0 | 5.0 | 0.00 | 0.02 | 0.00 | 80 | 1010.4 |
| 20260506121746 | 61 | 269 | 2.0 | 4.0 | 0.00 | 0.02 | 0.00 | 81 | 1010.4 |
| 20260506120746 | 61 | 242 | 2.0 | 4.0 | 0.00 | 0.02 | 0.00 | 82 | 1010.1 |
| 20260506115731 | 61 | 216 | 2.0 | 4.0 | 0.00 | 0.02 | 0.00 | 81 | 1010.4 |
| 20260506114731 | 61 | 218 | 2.0 | 4.0 | 0.00 | 0.02 | 0.00 | 82 | 1010.2 |
| 20260506113733 | 60 | 260 | 2.0 | 5.0 | 0.00 | 0.02 | 0.00 | 82 | 1010.4 |
| 20260506112718 | 60 | 238 | 2.0 | 3.0 | 0.00 | 0.02 | 0.00 | 82 | 1010.3 |
| 20260506111716 | 60 | 236 | 1.0 | 2.0 | 0.00 | 0.02 | 0.00 | 83 | 1010.1 |
| 20260506110716 | 59 | 234 | 2.0 | 3.0 | 0.00 | 0.02 | 0.00 | 84 | 1010.6 |
| 20260506105702 | 58 | 223 | 1.0 | 2.0 | 0.00 | 0.02 | 0.00 | 85 | 1010.6 |
| 20260506104647 | 58 | 232 | 1.0 | 2.0 | 0.00 | 0.02 | 0.00 | 85 | 1010.5 |
| 20260506103634 | 58 | 231 | 1.0 | 2.0 | 0.00 | 0.02 | 0.00 | 85 | 1010.6 |
| 20260506102634 | 58 | 224 | 1.0 | 2.0 | 0.00 | 0.02 | 0.00 | 85 | 1010.4 |
| 20260506101632 | 58 | 223 | 1.0 | 2.0 | 0.00 | 0.02 | 0.00 | 85 | 1010.2 |
| 20260506100633 | 58 | 233 | 1.0 | 2.0 | 0.00 | 0.02 | 0.00 | 85 | 1010.2 |
| 20260506095633 | 58 | 235 | 1.0 | 3.0 | 0.00 | 0.02 | 0.00 | 85 | 1010.2 |
| 20260506094618 | 58 | 230 | 1.0 | 3.0 | 0.00 | 0.02 | 0.00 | 85 | 1010.2 |
| 20260506093622 | 58 | 229 | 0.0 | 1.0 | 0.00 | 0.02 | 0.00 | 84 | 1010.3 |
| 20260506092618 | 58 | 253 | 1.0 | 2.0 | 0.00 | 0.02 | 0.00 | 84 | 1010.1 |
| 20260506091618 | 58 | 0 | 1.0 | 2.0 | 0.00 | 0.02 | 0.00 | 84 | 1010.2 |
| 20260506090618 | 58 | 223 | 1.0 | 3.0 | 0.00 | 0.02 | 0.00 | 83 | 1010.3 |
| 20260506085605 | 58 | 224 | 1.0 | 2.0 | 0.00 | 0.02 | 0.00 | 83 | 1010.2 |
| 20260506084605 | 58 | 224 | 1.0 | 2.0 | 0.00 | 0.02 | 0.00 | 82 | 1010.3 |
| 20260506083605 | 59 | 214 | 0.0 | 1.0 | 0.00 | 0.02 | 0.00 | 82 | 1010.4 |
| 20260506082605 | 59 | 222 | 0.0 | 1.0 | 0.00 | 0.02 | 0.00 | 82 | 1010.4 |
| 20260506081605 | 59 | 231 | 0.0 | 2.0 | 0.00 | 0.02 | 0.00 | 81 | 1010.3 |
| 20260506080605 | 59 | 0 | 0.0 | 2.0 | 0.00 | 0.02 | 0.00 | 81 | 1010.3 |
| 20260506072551 | 60 | 242 | 1.0 | 3.0 | 0.00 | 0.02 | 0.00 | 79 | 1010.1 |
| 20260506071552 | 60 | 235 | 2.0 | 2.0 | 0.00 | 0.02 | 0.00 | 78 | 1010.1 |
| 20260506070535 | 61 | 229 | 2.0 | 3.0 | 0.00 | 0.02 | 0.00 | 78 | 1010.1 |
| 20260506061521 | 62 | 258 | 2.0 | 4.0 | 0.00 | 0.02 | 0.00 | 75 | 1009.9 |
| 20260506060506 | 62 | 219 | 3.0 | 5.0 | 0.00 | 0.02 | 0.00 | 74 | 1009.9 |
| 20260506050423 | 63 | 140 | 2.0 | 4.0 | 0.00 | 0.02 | 0.00 | 69 | 1010.2 |
| 20260506044422 | 63 | 213 | 2.0 | 3.0 | 0.00 | 0.02 | 0.00 | 68 | 1010.2 |
| 20260506043422 | 63 | 264 | 2.0 | 6.0 | 0.00 | 0.02 | 0.00 | 68 | 1010.1 |
| 20260506042422 | 63 | 248 | 2.0 | 5.0 | 0.00 | 0.02 | 0.00 | 68 | 1010.1 |
| 20260506041422 | 64 | 253 | 2.0 | 4.0 | 0.00 | 0.02 | 0.00 | 67 | 1010.1 |
| 20260506040423 | 64 | 224 | 2.0 | 6.0 | 0.00 | 0.02 | 0.00 | 67 | 1010.1 |
| 20260506035423 | 64 | 232 | 2.0 | 4.0 | 0.00 | 0.02 | 0.02 | 67 | 1010.3 |
| 20260506034424 | 64 | 239 | 2.0 | 6.0 | 0.00 | 0.02 | 0.02 | 66 | 1010.3 |
| 20260506033424 | 64 | 189 | 2.0 | 6.0 | 0.00 | 0.02 | 0.02 | 67 | 1010.4 |
| 20260506032423 | 63 | 210 | 2.0 | 6.0 | 0.00 | 0.02 | 0.02 | 67 | 1010.4 |
| 20260506031422 | 64 | 302 | 1.0 | 4.0 | 0.00 | 0.02 | 0.02 | 67 | 1010.5 |
| 20260506030423 | 64 | 234 | 1.0 | 3.0 | 0.00 | 0.02 | 0.02 | 66 | 1010.5 |
| 20260506025423 | 64 | 230 | 1.0 | 4.0 | 0.00 | 0.02 | 0.02 | 66 | 1010.5 |
| 20260506024423 | 64 | 218 | 1.0 | 4.0 | 0.00 | 0.02 | 0.02 | 66 | 1010.4 |
| 20260506023424 | 64 | 290 | 1.0 | 3.0 | 0.00 | 0.02 | 0.02 | 65 | 1010.3 |
| 20260506022422 | 64 | 231 | 1.0 | 4.0 | 0.00 | 0.02 | 0.02 | 65 | 1010.3 |
| 20260506021424 | 64 | 221 | 1.0 | 4.0 | 0.00 | 0.02 | 0.02 | 64 | 1010.2 |
| 20260506020420 | 64 | 218 | 2.0 | 4.0 | 0.00 | 0.02 | 0.02 | 64 | 1010.1 |
| 20260506015420 | 65 | 247 | 1.0 | 4.0 | 0.00 | 0.02 | 0.02 | 63 | 1010.2 |
| 20260506014422 | 65 | 269 | 1.0 | 3.0 | 0.00 | 0.02 | 0.02 | 63 | 1010.1 |
| 20260506013420 | 65 | 258 | 1.0 | 3.0 | 0.00 | 0.02 | 0.02 | 62 | 1010.0 |
| 20260506012420 | 66 | 347 | 2.0 | 5.0 | 0.00 | 0.02 | 0.02 | 62 | 1009.9 |
| 20260506011419 | 66 | 217 | 2.0 | 6.0 | 0.00 | 0.02 | 0.02 | 61 | 1009.7 |
| 20260506010419 | 67 | 248 | 2.0 | 5.0 | 0.00 | 0.02 | 0.02 | 60 | 1009.6 |